Location: Radomski Observatory
(40.2854°N, 79.5145°W)
Time: 22:30:38
(UTC-05:00)

Cosmos 1072 Rocket - Visible Passes

Search period start: 17 February 2018 00:00
Search period end: 27 February 2018 00:00
Orbit: 948 x 1009 km, 82.9° (Epoch: 17 February)

Date Brightness Start Highest point End Pass type
(mag) Time Alt. Az. Time Alt. Az. Time Alt. Az.
17 Feb 5.2 18:41:38 10° NNE 18:47:02 31° ENE 18:52:27 10° SE visible
17 Feb 5.8 20:26:52 10° NNW 20:32:30 38° W 20:38:12 10° SSW visible
18 Feb 4.5 19:07:30 10° N 19:13:36 56° E 19:19:44 10° SSE visible
18 Feb 6.8 20:54:07 10° NW 20:58:31 21° W 21:02:57 10° SW visible
19 Feb 4.6 19:33:47 10° N 19:39:59 80° W 19:46:15 10° S visible
19 Feb 7.5 21:23:58 10° WNW 21:24:22 10° WNW 21:24:44 10° W visible
20 Feb 5.6 20:00:24 10° NNW 20:06:12 43° W 20:12:03 10° SSW visible
21 Feb 4.7 18:41:12 10° N 18:47:14 51° ENE 18:53:19 10° SSE visible
21 Feb 6.7 20:27:32 10° NW 20:32:15 23° W 20:37:00 10° SW visible
22 Feb 7.4 06:28:42 10° ESE 06:32:07 16° E 06:35:32 10° NE visible
22 Feb 4.5 19:07:24 10° N 19:13:39 88° W 19:19:57 10° S visible
22 Feb 7.5 20:56:05 10° WNW 20:58:07 12° W 21:00:10 10° W visible
23 Feb 5.5 19:33:58 10° NNW 19:39:54 48° W 19:45:53 10° SSW visible
24 Feb 6.7 20:00:59 10° NNW 20:05:58 26° W 20:11:01 10° SW visible
25 Feb 7.6 06:02:57 10° ESE 06:05:51 14° E 06:08:45 10° NE visible
25 Feb 4.5 18:41:03 10° N 18:47:18 84° E 18:53:38 10° S visible
25 Feb 7.5 20:29:03 10° NW 20:31:52 13° W 20:34:42 10° WSW visible
26 Feb 7.0 06:26:47 10° SE 06:31:45 27° E 06:36:43 10° NNE visible
26 Feb 5.4 19:07:32 10° NNW 19:13:35 53° W 19:19:41 10° SSW visible
